Location: Cormont
(50.5693°N, 1.7416°E)
Time: 15:21:52
(UTC+00:00)

CZ-2D R/B - Pass Details

Date: 21 October 2019
Orbit: 523 x 538 km, 97.4° (Epoch: 12 November)

Event Time Altitude Azimuth Distance (km) Brightness Sun altitude
Rises 17:52:44 0° 143° (SE) 2,670 6.5 -10.7°
Reaches altitude 10° 17:54:56 10° 134° (SE) 1,787 5.5 -11.0°
Maximum altitude 17:58:28 35° 69° (ENE) 878 3.9 -11.6°
Drops below altitude 10° 18:02:03 10° 2° (N) 1,807 5.9 -12.2°
Sets 18:04:17 0° 354° (N) 2,705 6.9 -12.5°
